Home > Time Zones > World Clock > Weather > Iran > Rasht > Past weeks

Flag for Iran Weather past 2 weeks in Rasht, Iran

Now
70 °F

Haze.


Feels Like: 70 °F
Forecast: 51 / 76 °F
Wind: 7 mph from Northeast

Location: Rasht Airport


UV Index: 5 (Moderate)

Visibility: 2 mi


Pressure: 30.01 "Hg

Humidity: 69%

Dew point: 59 °F

Location of RashtLocation

Historic Weather in Rasht

°F

Rasht temperature yesterday

Maximum temperature yesterday: 68 °F (at 4:00 PM)
Minimum temperature yesterday: 54 °F (at 6:30 AM)
Average temperature yesterday: 61 °F

Past Weeks' High & Low Weather Summary

 TemperatureHumidityPressure
High70 °F (Apr 16, 1:30 PM)100% (Apr 2, 12:30 AM)30.54 "Hg (Apr 2, 12:30 AM)
Low37 °F (Apr 2, 4:30 AM)21% (Apr 2, 2:30 PM)29.74 "Hg (Apr 2, 3:30 PM)
Average54 °F81%30.05 "Hg
* Reported Apr 1 1:30 PM — Apr 16 2:00 PM, Rasht, Weather by CustomWeather, © 2014

Note: Actual official high and low records may vary slightly from our data, if they occured in-between our weather recording intervals... More about our weather records

Advertising

Historic Weather Conditions — Data for Previous 24 hours

 ConditionsComfort  
Time TempWeatherWind HumidityBarometerVisibility
2:00 PM
Apr 16
70 °FHaze.7 mph69%30.01 "Hg2 mi
1:30 PM70 °FHaze.7 mph69%30.01 "Hg2 mi
1:00 PM68 °FHaze.No wind64%30.04 "Hg2 mi
12:30 PM68 °FHaze.No wind64%30.04 "Hg2 mi
12:00 PM68 °FHaze.No wind64%30.04 "Hg2 mi
11:30 AM68 °FHaze.No wind64%30.04 "Hg2 mi
11:00 AM63 °FFog.No wind88%30.04 "Hg2 mi
10:30 AM63 °FFog.No wind88%30.04 "Hg2 mi
10:00 AM57 °FFog.No wind100%30.04 "Hg2 mi
9:30 AM57 °FFog.No wind100%30.04 "Hg1 mi
9:00 AM57 °FFog.No wind100%30.04 "Hg1 mi
8:30 AM54 °FFog.No wind100%30.04 "Hg1 mi
8:00 AM54 °FFog.2 mph100%30.04 "Hg1 mi
7:30 AM54 °FFog.No wind100%30.04 "Hg1 mi
7:00 AM54 °FFog.5 mph100%30.04 "Hg0 mi
6:30 AM54 °FFog.2 mph100%30.04 "Hg0 mi
6:00 AM54 °FFog.5 mph100%30.04 "Hg1 mi
8:00 PM
Apr 15
59 °FScattered clouds.No wind77%30.01 "Hg2 mi
7:30 PM59 °FScattered clouds.2 mph77%30.01 "Hg2 mi
6:00 PM63 °FScattered clouds.9 mph64%30.01 "Hg2 mi
5:30 PM63 °FScattered clouds.9 mph64%30.01 "Hg2 mi
5:00 PM66 °FBroken clouds.5 mph68%30.01 "Hg2 mi
4:30 PM66 °FScattered clouds.9 mph68%30.01 "Hg2 mi
4:00 PM68 °FScattered clouds.5 mph60%30.01 "Hg3 mi
Weather by CustomWeather, © 2014

See weather overview